Find Intelsat IS-15

NORAD ID: 36106 Int'l Des: 2009-067 Owner: INTELD Country: US operational
HEOCIRCULARGSOGEO

实时位置

正在加载3D地球...

关于 Intelsat IS-15

正在加载描述...

即将过境

Passes for default location (London). Set your location on the main map for personalized predictions.

高度历史

Loading altitude history...

两行轨道根数

1 36106U 09067A 26106.47733396 -.00000178 00000-0 00000+0 0 9991
2 36106 0.0174 256.7867 0002178 126.8249 78.0114 1.00271064 40614
Epoch: Apr 16, 2026 • Age: 16 hours

当前状态

高度 35779.6 km
速度 3.08 km/s
星下点 0.04°N, 85.13°E
发射日期 Nov 30, 2009
运行时间 16.3 years
类型 communications

技术详情

分类 Payload
质量 2484.00 kg
干质量 1150.00 kg
总质量 2484.00 kg
长度 4.10 m
直径 2.30 m
跨度 22.40 m
形状 Box + 2 Pan
制造商 OSCD
平台类型 OSC Star 2
阶段状态 In Orbit
所有者/国家 INTELD/US

Most Searched